STARLINK-2481, 48138

Orbit data source: Space-Track

STARLINK-2481, 48138 is a payload satellite owned by SpaceX/Seattle (US) in LEO that was launched on Wed, 07 Apr 2021 UTC via an FALCON 9 launch vehicle from the Air Force Eastern Test Range (AFETR). Payload-class satellites include a variety of spacecraft equipped with specific instruments for various scientific and technological missions. These include communications satellites like Starlink; space stations such as the ISS; scientific satellites like the Hubble; Earth observation satellites from companies like Planet Labs, Umbra, and HawkEye 360; GPS; miniature CubeSats for education and research; and military/defense satellites.

Loading next visibility...
Identifier
48138, 2021-027AY
Orbit
LEO
Country
Flag of USUS
Related business
Manufacturer
SpaceX/Seattle
Mission
Operational Commercial Communications
Bus & Motor
STARLINK, Unknown motor
Mass
260 kg wet, ~248 kg dry
Launch date (UTC)
2021-04-07 (5 years ago)
Launch vehicle
FALCON 9
Launch site
Air Force Eastern Test Range (AFETR)
Object type
Payload
Rocket body
Debris
Shape & HBR
Box + 1 Pan, 10.1 m
Radar Cross Section
13.562 m², Large (>1 m²)

Expand to show TLE details & history
Last TLE update: 2 days ago

TLE from 2 days ago
0 STARLINK-2481
1 48138U 21027AY  26171.39249992  .00000553  00000-0  29584-4 0  9995
2 48138  53.1612  49.9623 0001108  93.2889 266.8239 15.31701615288213
Epoch: 2026-06-20T09:25Z
TLE epoch observation values (Epoch: 2026-06-20T09:25:11.993Z)
Latitude
-0.00002°
Longitude
0.05454°
Altitude
471.678 km
Speed
7.631 km/s
True Right ascension
03h 19m 50s
True Declination
0° 00' 00"
Sunlit
Object was in daylight at epoch
Visualization orbit readout
Latitude
Unknown
Longitude
Unknown
Altitude
Unknown
Speed
Unknown
Apparent Right ascension
Unknown
Apparent Declination
Unknown
Sunlit
N/A
Visualization observer readout
Local Sidereal Time
21:26:52
Azimuth
Unknown
Elevation
Unknown
Doppler factor
Unknown
Orbital elements
Apogee altitude
471.75 km
Perigee altitude
470.233 km
Semi-major axis
6,849.129 km
Eccentricity
0.00011
Inclination
53.1612°
RAAN
49.9623°
Arg. of periapsis
93.2889°
True anomaly
266.81122°
Mean anomaly
266.8239°
Eccentric anomaly
266.81756°
Mean motion
3.82904 °/min
Orbital period
94.02 mins
BSTAR
0.000029584
Loading maneuver chart data...
Computing Atmospheric mass density...

Documentation

Showing up to 5 results
|